Hourly Weather Roundup
Issued by NWS

Home | Current Version | Previous Version | Text Only | Print | Product List | Glossary On
Versions: 1 2 3 4 5 6 7 8 9 10 11 12 13 14 15 16 17 18 19 20 21 22 23 24 25 26 27 28 29 30 31 32 33 34 35 36 37 38 39 40 41 42 43 44 45 46 47 48 49 50
641
NZUS43 KILX 121610
HWRCRS

NWR Hourly Weather Roundup
National Weather Service Lincoln IL
1000 AM CST TUE DEC 12 2017


CITY           SKY/WX    TMP DP  RH WIND       PRES   REMARKS
Champaign      MOSUNNY   23  11  60 NW20      30.14S WCI   8
Lawrenceville  MOSUNNY   29  15  56 NW18      30.16R WCI  16
Peoria         SUNNY     23   8  52 NW12G22   30.20R WCI  12
Springfield    SUNNY     27  13  55 NW13G23   30.21R WCI  16
$$


CITY           SKY/WX    TMP DP  RH WIND       PRES   REMARKS
Bloomington    PTSUNNY   21  12  68 NW17      30.15S WCI   7
Danville       PTSUNNY   22  10  60 NW16G24   30.09R WCI   8
Decatur        SUNNY     24  12  60 NW17      30.17S WCI  11
Effingham      SUNNY     28  14  56 NW18      30.19S WCI  15
Flora          MOSUNNY   31  17  57 NW16      30.18S WCI  20
Galesburg      PTSUNNY   22  15  75 NW14G21   30.22R WCI   9
Jacksonville   SUNNY     25  13  60 NW16      30.23S WCI  13
Lacon          MOSUNNY   21  10  61 NW14      30.18S WCI   8
La Salle       MOSUNNY   17  10  72 NW14G22   30.18R WCI   3
Lincoln        MOSUNNY   25  11  56 NW12G21   30.19S WCI  14
Litchfield     SUNNY     26  12  55 NW17G23   30.22R WCI  13

CITY           SKY/WX    TMP DP  RH WIND       PRES   REMARKS
Macomb         SUNNY     23  15  71 NW16      30.25S WCI   9
Mattoon        MOSUNNY   25  13  60 NW20G26   30.15R WCI  11
Moline         SUNNY     22  12  65 W15       30.21R WCI   9
Olney          MOSUNNY   29  13  52 NW15G26   30.18R WCI  18
Paris          PTSUNNY   24  12  61 NW20      30.15R WCI   9
Pontiac        MOSUNNY   21  10  61 NW16      30.16S WCI   7
Quincy         SUNNY     24  12  60 NW17      30.25R WCI  11
Rantoul        CLOUDY    23  11  60 NW18G24   30.13S WCI   9
Robinson       MOSUNNY   26  13  56 NW18G24   30.17R WCI  13
Taylorville    SUNNY     26  13  59 NW15G21   30.20R WCI  14
Terre Haute    MOSUNNY   25  11  55 NW16G23   30.13R WCI  12
$$


CITY           SKY/WX    TMP DP  RH WIND       PRES   REMARKS
Burlington     SUNNY     21  12  68 NW13      30.24R WCI   9
Chicago        MOSUNNY   19   6  57 NW21G30   30.09S WCI   3
Des Moines     PTSUNNY   20   9  62 NW9       30.28F WCI   9
Evansville     PTSUNNY   31  20  63 NW17G26   30.15R WCI  19
Indianapolis   MOSUNNY   26  12  55 NW16G24   30.05R WCI  14
Kansas City    MOSUNNY   25  16  68 NW8       30.36R WCI  16
Milwaukee      MOSUNNY   19   5  54 NW15G25   30.07R WCI   5
St Louis       MOSUNNY   30  17  58 NW17      30.25R WCI  18
$$





USA.gov is the U.S. government's official web portal to all federal, state and local government web resources and services.